Location: Roanoke
(37.2710°N, 79.9420°W)
Time: 19:33:47
(UTC-05:00)

Transit 2A - Pass Details

Date: 26 November 2019
Orbit: 602 x 957 km, 66.7° (Epoch: 08 December)

Event Time Altitude Azimuth Distance (km) Brightness Sun altitude
Rises 20:05:32 0° 326° (NW) 2,865 9.4 -35.7°
Enters shadow 20:07:10 - 323° (NW) 2,215 8.8 -36.1°
Reaches altitude 10° 20:07:47 10° 321° (NW) 1,973 - -36.2°
Maximum altitude 20:12:03 51° 246° (WSW) 801 - -37.0°
Drops below altitude 10° 20:16:35 10° 171° (S) 2,091 - -37.9°
Sets 20:19:02 0° 166° (SSE) 3,054 - -38.4°
